Flag for Germany Past Weather in Singen (Hohentwiel), Baden-Württemberg, Germany — Yesterday and Last 2 Weeks

Now
70 °F

Partly cloudy.


Feels Like: 70 °F
Forecast: 57 / 80 °F
Wind: 5 mph from West

Location: Zurich-Kloten

Current Time: Jul 23, 2016 at 11:22:41 PM

Latest Report: Jul 23, 2016 at 10:50 PM


Visibility: N/A

Pressure: 30.12 "Hg

Humidity: 73%

Dew Point: 61 °F

Location of Singen (Hohentwiel)Location

Past Weather in Singen (Hohentwiel) — Graph

°F

Singen (Hohentwiel) Temperature Yesterday

Maximum temperature yesterday: 75 °F (at 1:20 PM)
Minimum temperature yesterday: 63 °F (at 11:50 PM)
Average temperature yesterday: 69 °F

High & Low Weather Summary for the Past Weeks

 TemperatureHumidityPressure
High91 °F (Jul 20, 5:20 PM)100% (Jul 10, 6:50 AM)30.36 "Hg (Jul 10, 6:50 AM)
Low45 °F (Jul 16, 3:50 AM)31% (Jul 20, 3:20 PM)29.92 "Hg (Jul 10, 5:50 PM)
Average67 °F73%30.11 "Hg
* Reported Jul 8 10:20 PM — Jul 23 10:20 PM, Singen (Hohentwiel), Weather by CustomWeather, © 2016

Note: Actual official high and low records may vary slightly from our data, if they occured in-between our weather recording intervals... More about our weather records

Advertising

Singen (Hohentwiel) Weather History for the Previous 24 Hours

Scroll right to see more
 ConditionsComfort  
Time TempWeatherWind HumidityBarometerVisibility
10:20 PM
Sat, Jul 23
70 °FThundershowers. Passing clouds.2 mph78%30.12 "HgN/A
9:50 PM72 °FThundershowers. Partly sunny.1 mph69%30.12 "HgN/A
9:20 PM72 °FThundershowers. Scattered clouds.6 mph69%30.09 "HgN/A
8:50 PM73 °FScattered showers. Scattered clouds.6 mph65%30.09 "HgN/A
8:20 PM75 °FScattered showers. Scattered clouds.7 mph61%30.07 "HgN/A
7:50 PM75 °FScattered showers. Scattered clouds.7 mph61%30.07 "HgN/A
7:20 PM75 °FThunderstorms. Scattered clouds.7 mph57%30.07 "HgN/A
6:50 PM75 °FPartly sunny.12 mph61%30.07 "HgN/A
6:20 PM79 °FPartly sunny.7 mph58%30.07 "HgN/A
5:50 PM77 °FPartly sunny.6 mph54%30.07 "HgN/A
5:20 PM77 °FPartly sunny.5 mph54%30.07 "HgN/A
4:50 PM77 °FPartly sunny.6 mph61%30.07 "HgN/A
4:20 PM75 °FPartly sunny.5 mph57%30.07 "HgN/A
3:50 PM75 °FScattered showers. Partly sunny.2 mph57%30.07 "HgN/A
3:20 PM75 °FScattered showers. Broken clouds.7 mph61%30.07 "HgN/A
2:50 PM75 °FBroken clouds.5 mph61%30.09 "HgN/A
2:20 PM75 °FPartly sunny.6 mph65%30.09 "HgN/A
1:50 PM73 °FPartly sunny.7 mph65%30.09 "HgN/A
1:20 PM72 °FPartly sunny.7 mph69%30.09 "HgN/A
12:50 PM73 °FPartly sunny.5 mph69%30.09 "HgN/A
12:20 PM72 °FPartly sunny.5 mph73%30.09 "HgN/A
11:50 AM72 °FPartly sunny.6 mph73%30.07 "HgN/A
11:20 AM72 °FPartly sunny.3 mph73%30.09 "HgN/A
10:50 AM70 °FPartly sunny.6 mph73%30.09 "HgN/A
10:20 AM70 °FPartly sunny.3 mph73%30.07 "HgN/A
9:50 AM68 °FBroken clouds.1 mph78%30.07 "HgN/A
9:20 AM66 °FPartly sunny.3 mph83%30.07 "HgN/A
8:50 AM66 °FBroken clouds.3 mph78%30.07 "HgN/A
8:20 AM66 °FPartly sunny.5 mph83%30.07 "HgN/A
7:50 AM64 °FBroken clouds.5 mph88%30.07 "HgN/A
7:20 AM64 °FPartly sunny.No wind88%30.07 "HgN/A
6:50 AM63 °FPassing clouds.1 mph94%30.07 "HgN/A
6:20 AM63 °FPassing clouds.1 mph94%30.07 "HgN/A
5:50 AM63 °FScattered showers. Passing clouds.1 mph94%30.07 "HgN/A
5:20 AM63 °FPassing clouds.1 mph94%30.07 "HgN/A
4:50 AM63 °FPassing clouds.2 mph94%30.07 "HgN/A
4:20 AM63 °FPassing clouds.2 mph94%30.07 "HgN/A
3:50 AM63 °FPassing clouds.No wind94%30.07 "HgN/A
3:20 AM63 °FPassing clouds.1 mph94%30.07 "HgN/A
2:50 AM63 °FPartly cloudy.1 mph94%30.07 "HgN/A
1:50 AM61 °FPartly cloudy.2 mph100%30.07 "HgN/A
1:20 AM61 °FPassing clouds.2 mph94%30.07 "HgN/A
12:50 AM63 °FPassing clouds.2 mph88%30.07 "HgN/A
12:20 AM64 °FPassing clouds.2 mph88%30.07 "HgN/A
11:50 PM
Fri, Jul 22
63 °FPartly cloudy.5 mph94%30.07 "HgN/A
11:20 PM64 °FPartly cloudy.7 mph83%30.07 "HgN/A
Weather by CustomWeather, © 2016

See weather overviewHow to use our weather pages